Regional Weather Roundup
Issued by NWS

Home | Current Version | Previous Version | Text Only | Print | Product List | Glossary Off
Versions: 1 2 3 4 5 6 7 8 9 10 11 12 13 14 15 16 17 18 19 20 21 22 23 24 25 26 27

000
ASUS45 KTFX 222210
RWRMT
MONTANA REGIONAL WEATHER ROUNDUP
NATIONAL WEATHER SERVICE GREAT FALLS MT
400 PM MDT THU JUN 22 2017

NOTE: "FAIR" INDICATES FEW OR NO CLOUDS BELOW 12000 FEET WITH NO
SIGNIFICANT WEATHER AND/OR OBSTRUCTIONS TO VISIBILITY.

MTZ001>007-043-222300-
WEST OF THE DIVIDE

CITY           SKY/WX    TMP DP  RH WIND       PRES   REMARKS
KALISPELL      MOSUNNY   71  32  23 NE9       30.15S
MISSOULA       MOSUNNY   71  31  22 NE13G24   30.15R
BUTTE          SUNNY     66  21  18 N20G29    30.16R
MULLAN PASS    MOSUNNY   57  27  31 VRB5      30.28R
ANACONDA         N/A     68  21  17 W10G16    30.15S
DEER LODGE       N/A     64  25  22 NW16G22   30.19R
EUREKA           N/A     70  28  21 MISG      30.16S
HAMILTON         N/A     70  25  18 W8G22     30.15R
LIBBY            N/A     72  25  17 CALM      30.15R
$$

MTZ008-052>055-222300-
SOUTHWEST MONTANA

CITY           SKY/WX    TMP DP  RH WIND       PRES   REMARKS
BOZEMAN        PTSUNNY   67  30  25 N13       30.11R
DILLON         MOSUNNY   68  33  27 VRB3G20   30.11R
W YELLOWSTONE  SUNNY     66  14  13 W9G20     30.15R
ENNIS          SUNNY     70  23  17 W14G23    30.16F
THREE FORKS      N/A     72  24  16 NW14      30.08R
$$

MTZ009-010-012-014-046-048-049-054-222300-
EAST SLOPES AND CENTRAL MONTANA

CITY           SKY/WX    TMP DP  RH WIND       PRES   REMARKS
CUT BANK       CLOUDY    58  35  42 N16G26    30.21R
GREAT FALLS    MOSUNNY   66  31  27 N14G26    30.16R
MALMSTROM AFB  MOSUNNY   64  35  34 N22G29    30.18R
HELENA         CLOUDY    68  30  24 N14G24    30.14R
CHOTEAU          N/A     61  36  39 NE17G26   30.22R
$$

MTZ011-013-016-021-045-047-050-051-222300-
NORTH CENTRAL MONTANA

CITY           SKY/WX    TMP DP  RH WIND       PRES   REMARKS
HAVRE          LGT RAIN  54  44  69 NW17G26   30.17R
LEWISTOWN      MOSUNNY   63  34  33 NW20G33   30.14R
N BAR RANCH      N/A     64  27  24 NW23G36   30.14R
CHINOOK          N/A     55  43  62 W23G31    30.12S
FORT BENTON      N/A     61  36  39 MISG        N/A
$$

MTZ017>020-022>027-061-062-222300-
NORTHEAST MONTANA

CITY           SKY/WX    TMP DP  RH WIND       PRES   REMARKS
GLASGOW        LGT RAIN  54  46  74 NW30G45   30.00R
JORDAN           N/A     70  33  25 NW32G46   30.00R
SIDNEY         MOSUNNY   71  35  26 NW31G40   29.88R
WOLF POINT     CLOUDY    65  39  38 W36G46    29.95R
MALTA          MOSUNNY   54  46  76 W22G30    30.07R
PLENTYWOOD       N/A     55  45  67 W26G32    29.86S
POPLAR           N/A     63  41  45 NW29G43   29.92R
$$

MTZ028>42-056>058-222300-
SOUTHCENTRAL AND SOUTHEAST MONTANA

CITY           SKY/WX    TMP DP  RH WIND       PRES   REMARKS
BAKER          CLOUDY    68  29  23 W16G26    29.95R
BILLINGS       MOSUNNY   70  29  21 N20G26    30.04R
LIVINGSTON     CLOUDY    67  28  23 NW15      30.09R
MILES CITY     PTSUNNY   75  26  16 NW25G33   29.95R
BIG TIMBER     PTSUNNY   66  28  24 W12G22    30.12R
FORSYTH          N/A     73  28  19 NW21G31   29.97S
ROUNDUP          N/A     69  25  19 W20       29.98R
$$

REGIONAL REPORTS...DAKOTAS

CITY           SKY/WX    TMP DP  RH WIND       PRES   REMARKS
WILLISTON      CLOUDY    70  36  28 NW35G46   29.85R
MINOT          MOSUNNY   70  35  27 W25G45    29.75S
DICKINSON      MOSUNNY   69  26  20 W25G38    29.86F
BEACH          PTSUNNY   70  25  18 NW29G37   29.93S
CROSBY         CLOUDY    57  45  62 W24G38    29.83S
TIOGA            N/A     64  39  39 NW41G51   29.83R
WATFORD CITY     N/A     68  36  30 NW24G33   29.83F
BISMARCK       MOSUNNY   77  33  20 W21G35    29.80F
GRAND FORKS    PTSUNNY   74  39  28 W17G29    29.68S
FARGO          MOSUNNY   78  40  25 W23G29    29.71S
BUFFALO SD       N/A     73  32  22 NW28G37   29.87R
RAPID CITY     MOSUNNY   78  40  25 N17G29    29.92F
$$

REGIONAL REPORTS...WYOMING/IDAHO/WASHINGTON

CITY           SKY/WX    TMP DP  RH WIND       PRES   REMARKS
GILLETTE       MOSUNNY   73  38  27 NW13      29.99S
SHERIDAN       SUNNY     74  35  24 NW23      30.01S
BUFFALO WY     SUNNY     69  39  33 N16G26    30.05S
CODY           SUNNY     70  27  20 NE21G26   30.05S
YELLOWSTONE LA   N/A     63  18  17 W14G21    30.20S
IDAHO FALLS    SUNNY     75  35  23 SW10      30.08F
SALMON         SUNNY     73  27  17 N6        30.08F
BOISE          SUNNY     80  29  15 W21G30    30.09F
SPOKANE        MOSUNNY   75  26  16 N8        30.20S
$$

REGIONAL REPORTS...ALBERTA

CITY           SKY/WX    TMP DP  RH WIND       PRES   REMARKS
EDMONTON       MOSUNNY   59  37  44 N16G28    30.15R
CALGARY        PTSUNNY   61  34  36 N24G30    30.19R
LETHBRIDGE     PTSUNNY   61  41  48 N14       30.19R
MEDICINE HAT   CLOUDY    57  41  54 NW21G31   30.13R
WATERTON GATE    N/A     59  37  44 NE6         N/A
MILK RIVER       N/A     59  41  51 N22G31      N/A
$$

REGIONAL REPORTS...SASKATCHEWAN

CITY           SKY/WX    TMP DP  RH WIND       PRES   REMARKS
SWIFT CURRENT  LGT RAIN  48  46  93 NW24G31   29.99R
REGINA         LGT RAIN  59  52  77 NW30G43   29.78R
SASKATOON      CLOUDY    54  45  71 N24G36    29.91R
CYPRESS HILLS    N/A     45  41  87 NW14G28     N/A
VAL MARIE        N/A     54  46  76 NW28G37     N/A
ROCKGLEN         N/A     52  48  87 NW16G25     N/A
ASSINIBOIA       N/A     61  39  44 NW21G30     N/A
$$




USA.gov is the U.S. government's official web portal to all federal, state and local government web resources and services.